Content
SEND FEEDBACK

Daily
Averages
Monthly
Summary
United States of America

CHICAGO, ILLINOIS


Home > North America > United States > Illinois
Elevation: 674 feet     Latitude: 41 59N     Longitude: 087 54W

WEATHER
 
SELECT A DAY
Number of Records: 195,110;   Date Range: 7/8/95 - 9/18/14
 
SHARE

PRINT THIS DATA

[ ← Previous Day ]
WEATHER ALMANAC - JANUARY 9, 2013
[ Next Day → ]
[ °C ]   °F
Weather ElementAverageHighLow
Temperature38.3 °F48 °F (11:52 am)26.1 °F (10:52 pm)
Dewpoint24.6 °F30 °F (1:52 am)18 °F (1:52 pm)
Humidity60.4 %78 % (6:52 am)30 % (1:52 pm)
Barometer30.30 in30.52 in (11:52 pm)30.02 in (1:52 am)
Wind Speed10.8 mph21.9 mph (2:52 pm)
Wind Gust36.8 mph (12:52 pm)
Weather ElementAverage
Visibility10 mi
Wind DirectionWSW (238.6 °)

Weather ElementTotal
Precipitation---
Heating Degree Days28 (Base 65)
Averaged from 22 records on January 9, 2013
WEATHER CONDITIONS BREAKOUT
WIND DIRECTION BREAKOUT
WEATHER BY HOUR - JANUARY 9, 2013
[ °C ]   °F
Local TimeTemperatureDewpointHumidityBarometerVisibilityWind DirectionWind SpeedGust SpeedPrecipitationEventsConditions
1:52 AM39.9 °F30.0 °F68 %30.02 in10.0 miSSW (210°)12.7 mph19.6 mph0.00 inScattered Clouds
2:52 AM41.0 °F30.0 °F65 %30.03 in10.0 miWSW (250°)15.0 mph24.2 mphClear
3:52 AM39.0 °F30.0 °F70 %30.05 in10.0 miWSW (240°)15.0 mph23.0 mphClear
4:52 AM37.9 °F30.0 °F73 %30.08 in10.0 miWSW (250°)12.7 mph19.6 mphClear
5:52 AM37.0 °F30.0 °F76 %30.13 in10.0 miWest (260°)13.8 mph19.6 mphClear
6:52 AM35.1 °F28.9 °F78 %30.18 in10.0 miWest (270°)10.4 mphClear
7:52 AM35.1 °F28.9 °F78 %30.20 in9.0 miWSW (250°)8.1 mphClear
8:52 AM37.0 °F28.9 °F73 %30.23 in10.0 miWSW (250°)10.4 mphClear
9:52 AM41.0 °F28.9 °F62 %30.26 in10.0 miWSW (250°)10.4 mphClear
11:52 AM48.0 °F25.0 °F41 %30.27 in10.0 miWSW (250°)16.1 mph27.6 mphClear
12:52 PM48.0 °F23.0 °F37 %30.28 in10.0 miWest (270°)20.7 mph36.8 mphClear
1:52 PM48.0 °F18.0 °F30 %30.30 in10.0 miWest (260°)17.3 mph32.2 mphClear
2:52 PM46.0 °F19.9 °F35 %30.34 in10.0 miWest (280°)21.9 mph31.1 mphClear
3:52 PM44.1 °F19.9 °F38 %30.38 in10.0 miWest (280°)12.7 mph19.6 mphClear
4:52 PM41.0 °F21.0 °F45 %30.42 in10.0 miWest (270°)9.2 mphClear
5:52 PM39.0 °F21.0 °F49 %30.46 in10.0 miWest (280°)9.2 mphClear
6:52 PM37.0 °F21.9 °F54 %30.48 in10.0 miWNW (290°)5.8 mphClear
7:52 PM35.1 °F23.0 °F61 %30.46 in10.0 miNW (310°)6.9 mphClear
8:52 PM33.1 °F21.9 °F64 %30.47 in10.0 miNW (320°)5.8 mphClear
9:52 PM27.0 °F21.0 °F78 %30.47 in10.0 miCalmClear
10:52 PM26.1 °F19.9 °F78 %30.49 in10.0 miSSW (210°)3.5 mphClear
11:52 PM27.0 °F19.9 °F75 %30.52 in10.0 miCalmClear
Hourly data recorded from KPWK, located miles away from Chicago, Illinois







STORIES FROM OUR PARTNERS